Location: Courçay
(47.2523°N, 0.8761°E)
Time: 02:21:02
(UTC+00:00)

COSMO-SKYMED 1 - Pass Details

Date: 18 November 2025
Orbit: 579 x 581 km, 97.9° (Epoch: 04 December)

Event Time Altitude Azimuth Distance (km) Brightness Sun altitude
Exits shadow 19:02:37 37° 317° (NW) 913 3.7 -27.7°
Maximum altitude 19:03:19 40° 290° (WNW) 858 3.6 -27.8°
Drops below altitude 10° 19:07:10 10° 221° (SW) 1,892 5.5 -28.5°
Sets 19:09:24 0° 214° (SSW) 2,786 6.3 -28.9°
